Pittsfield, MA

1:20 PM EST on December 06, 2019 (GMT -0500)
Pittsfield Municipal

Weather History for KPSF - August, 2019

Change the Weather History Date:

Sunday, August 18, 2019

  Actual Average Record
Temperature  
Mean Temperature 75 °F 67 °F  
Max Temperature 86 °F 77 °F 92 °F (1935)
Min Temperature 63 °F 56 °F 40 °F (1927)
Degree Days  
Heating Degree Days 0 1  
Month to date heating degree days 2 18  
Since 1 June heating degree days 69 150  
Since 1 July heating degree days 2 49  
Cooling Degree Days 10 3  
Month to date cooling degree days 79 66  
Year to date cooling degree days 355 243  
Since 1 June cooling degree days 349 230  
Growing Degree Days 24 (Base 50)    
Moisture  
Dew Point 64 °F    
Average Humidity 74    
Maximum Humidity 93    
Minimum Humidity 55    
Precipitation  
Precipitation 0.09 in 0.13 in 1.94 in (1955)
Month to date precipitation 1.07 2.44  
Year to date precipitation 27.21 28.13  
Sea Level Pressure  
Sea Level Pressure 29.99 in    
Wind  
Wind Speed 4 mph (SSW)    
Max Wind Speed 17 mph    
Max Gust Speed 22 mph    
Visibility 4 miles    
Events Fog , Rain , Thunderstorm    
T = Trace of Precipitation, MM = Missing Value Source: NWS Daily Summary

Daily Weather History Graph

Daily Weather History Graph

Search for Another Location

Airport or City:

Astronomy

Aug. 18, 2019 Rise Set
Actual Time 6:03 AM EDT 7:50 PM EDT
Civil Twilight 5:33 AM EDT 8:20 PM EDT
Nautical Twilight 4:56 AM EDT 8:56 PM EDT
Astronomical Twilight 4:16 AM EDT 9:35 PM EDT
Moon 9:40 PM EDT (8/18) 8:48 AM EDT (8/18)
Length of Visible Light 14h 47m
Length of Day
13h 47m
Waning Gibbous, 91% of the Moon is Illuminated
Aug 18
Waning Gibbous
Aug 23
Last Quarter
Aug 30
New
Sep 5
First Quarter
Sep 14
Full

Hourly Weather History & Observations

Time (EDT) Temp. Heat Index Dew Point Humidity Pressure Visibility Wind Dir Wind Speed Gust Speed Precip Events Conditions
12:01 AM 63.0 °F - 61.0 °F 93% 30.02 in 0.8 mi Calm Calm - N/A   Mist
12:12 AM 63.0 °F - 62.1 °F 97% 30.03 in 0.2 mi Calm Calm - N/A Fog Fog
12:18 AM 64.0 °F - 62.1 °F 93% 30.03 in 1.0 mi Calm Calm - N/A   Mist
12:23 AM 64.0 °F - 62.1 °F 93% 30.03 in 3.0 mi Calm Calm - N/A   Overcast
12:31 AM 64.0 °F - 63.0 °F 96% 30.04 in 1.8 mi Calm Calm - N/A   Overcast
12:39 AM 64.0 °F - 63.0 °F 96% 30.04 in 3.0 mi Calm Calm - N/A   Overcast
12:45 AM 64.0 °F - 63.0 °F 96% 30.04 in 1.8 mi Calm Calm - N/A   Overcast
12:54 AM 64.0 °F - 62.1 °F 93% 29.96 in 0.8 mi Calm Calm - N/A   Overcast
1:13 AM 64.0 °F - 62.1 °F 93% 30.04 in 0.2 mi Calm Calm - N/A Fog Fog
1:30 AM 64.0 °F - 62.1 °F 93% 30.03 in 0.5 mi Calm Calm - N/A Fog Fog
1:42 AM 64.0 °F - 63.0 °F 96% 30.04 in 0.2 mi Calm Calm - N/A Fog Fog
1:54 AM 64.0 °F - 63.0 °F 96% 29.96 in 0.2 mi Calm Calm - N/A Fog Fog
2:14 AM 64.0 °F - 63.0 °F 96% 30.02 in 0.2 mi SE 3.5 mph - N/A Fog Fog
2:54 AM 64.0 °F - 63.0 °F 96% 29.94 in 0.2 mi Calm Calm - N/A Fog Fog
3:54 AM 64.0 °F - 62.1 °F 93% 29.94 in 0.2 mi Calm Calm - N/A Fog Fog
4:54 AM 63.0 °F - 61.0 °F 93% 29.94 in 0.2 mi SE 3.5 mph - N/A Fog Fog
5:03 AM 63.0 °F - 62.1 °F 97% 30.02 in 0.2 mi ESE 3.5 mph - N/A Fog Fog
5:54 AM 63.0 °F - 61.0 °F 93% 29.95 in 0.5 mi Calm Calm - N/A Fog Fog
6:14 AM 63.0 °F - 61.0 °F 93% 30.03 in 2.0 mi Calm Calm - N/A   Overcast
6:30 AM 63.0 °F - 62.1 °F 97% 30.03 in 1.8 mi Calm Calm - N/A   Overcast
6:34 AM 63.0 °F - 62.1 °F 97% 30.03 in 3.0 mi Calm Calm - N/A   Overcast
6:50 AM 64.4 °F - 62.6 °F 94% 30.04 in 1.8 mi Calm Calm - N/A   Overcast
6:54 AM 64.0 °F - 62.1 °F 93% 29.97 in 0.8 mi Calm Calm - N/A   Overcast
7:09 AM 64.0 °F - 62.1 °F 93% 30.04 in 0.2 mi Calm Calm - N/A Fog Fog
7:54 AM 64.9 °F - 63.0 °F 93% 30.00 in 0.2 mi Calm Calm - N/A Fog Fog
8:02 AM 64.9 °F - 63.0 °F 93% 30.05 in 0.5 mi Calm Calm - N/A Fog Fog
8:15 AM 64.9 °F - 64.0 °F 97% 30.06 in 0.2 mi ENE 3.5 mph - N/A Fog Fog
8:54 AM 66.0 °F - 64.0 °F 93% 30.00 in 0.2 mi North 3.5 mph - N/A Fog Fog
9:18 AM 66.9 °F - 64.9 °F 93% 30.06 in 0.5 mi Calm Calm - N/A Fog Fog
9:51 AM 68.0 °F - 66.2 °F 94% 30.06 in 1.2 mi Calm Calm - N/A   Overcast
9:54 AM 68.0 °F - 66.0 °F 93% 30.00 in 1.5 mi Calm Calm - N/A   Overcast
10:04 AM 68.0 °F - 66.0 °F 93% 30.07 in 3.0 mi Calm Calm - N/A   Overcast
10:30 AM 70.0 °F - 66.0 °F 87% 30.07 in 10.0 mi Variable 4.6 mph - N/A   Overcast
10:54 AM 73.9 °F - 68.0 °F 82% 29.99 in 10.0 mi Variable 4.6 mph - N/A   Mostly Cloudy
11:25 AM 75.9 °F - 68.0 °F 76% 30.05 in 10.0 mi SW 4.6 mph - N/A   Scattered Clouds
11:54 AM 77.0 °F - 68.0 °F 74% 29.97 in 10.0 mi WSW 6.9 mph - N/A   Clear
12:54 PM 81.0 °F 83.8 °F 68.0 °F 65% 29.95 in 10.0 mi SW 6.9 mph - N/A   Partly Cloudy
1:54 PM 84.0 °F 87.0 °F 68.0 °F 58% 29.94 in 10.0 mi SW 10.4 mph - N/A   Scattered Clouds
2:54 PM 86.0 °F 89.4 °F 68.0 °F 55% 29.93 in 10.0 mi SW 8.1 mph - N/A   Scattered Clouds
3:54 PM 84.9 °F 87.6 °F 66.9 °F 55% 29.92 in 10.0 mi SW 9.2 mph - N/A   Partly Cloudy
4:54 PM 84.9 °F 88.2 °F 68.0 °F 57% 29.91 in 10.0 mi SSW 9.2 mph - N/A   Scattered Clouds
5:54 PM 84.0 °F 87.0 °F 68.0 °F 58% 29.88 in 10.0 mi SSW 5.8 mph - N/A   Clear
6:54 PM 82.0 °F 84.9 °F 68.0 °F 62% 29.89 in 10.0 mi Variable 3.5 mph - N/A   Clear
7:54 PM 81.0 °F 83.8 °F 68.0 °F 65% 29.89 in 10.0 mi South 8.1 mph - N/A   Clear
8:44 PM 79.0 °F - 69.1 °F 72% 29.99 in 10.0 mi SSW 10.4 mph 19.6 mph N/A Thunderstorm Thunderstorm
8:54 PM 73.9 °F - 66.9 °F 79% 29.94 in 9.0 mi WSW 15.0 mph - 0.00 in Rain , Thunderstorm Light Thunderstorms and Rain
9:05 PM 71.1 °F - 66.0 °F 84% 30.03 in 5.0 mi West 9.2 mph - 0.03 in Rain , Thunderstorm Thunderstorms and Rain
9:15 PM 71.1 °F - 66.0 °F 84% 30.04 in 6.0 mi Variable 3.5 mph - 0.05 in Rain , Thunderstorm Light Rain
9:27 PM 70.0 °F - 66.0 °F 87% 30.04 in 8.0 mi ENE 3.5 mph - 0.07 in Rain Light Rain
9:54 PM 69.1 °F - 66.0 °F 90% 29.96 in 10.0 mi Calm Calm - 0.09 in Rain Light Rain
10:54 PM 69.1 °F - 66.0 °F 90% 29.91 in 10.0 mi Calm Calm - 0.00 in   Partly Cloudy
11:54 PM 66.9 °F - 64.9 °F 93% 29.88 in 10.0 mi Calm Calm - N/A   Clear